User: anonymous   Login
Location: Hickory_Viewmont
(35.7830°N, 81.3170°W)
Time: 21:03:41
(UTC-04:00)
Language:

Okean-O - Orbit

View from above orbital plane
View from above orbital plane
View from above satellite
View from above satellite

Ground track
Ground track

The orbit data is extracted from the following two-line orbital elements,

1 25860U 99039A   15211.58017889  .00000259  00000-0  44999-4 0  9992
2 25860 098.0980 179.7109 0001425 109.6065 022.3654 14.76096674862389
Epoch (UTC): 30 July 2015 13:55:27
Eccentricity: 0.0001425
inclination: 98.0980°
perigee height: 640 km
apogee height: 642 km
right ascension of ascending node: 179.7109°
argument of perigee: 109.6065°
revolutions per day: 14.76096674
mean anomaly at epoch: 22.3654°
orbit number at epoch: 86238

The dashed part of the orbit path shows where the satellite is in the earth's shadow,  

DLR